Location: Cortada Guamacho
(10.5667°N, 67.0833°W)
Time: 15:24:44
(UTC+00:00)

Cosmos 2228 Rocket - Visible Passes

Search period start: 03 July 2022 00:00
Search period end: 13 July 2022 00:00
Orbit: 616 x 653 km, 82.5° (Epoch: 02 July)

Date Brightness Start Highest point End Pass type
(mag) Time Alt. Az. Time Alt. Az. Time Alt. Az.
03 Jul 6.2 07:25:42 10° ENE 07:26:34 10° E 07:27:26 10° E visible
03 Jul 3.9 09:00:36 10° NNW 09:04:34 31° W 09:06:10 25° SW visible
04 Jul 4.9 07:45:01 10° NNE 07:48:49 27° E 07:49:29 26° E visible
04 Jul 4.9 09:24:49 10° WNW 09:26:40 12° W 09:26:53 12° W visible
05 Jul 3.5 08:06:33 10° N 08:10:24 61° NNE 08:10:24 61° NNE visible
06 Jul 4.3 08:28:57 10° NNW 08:31:25 28° NW 08:31:25 28° NW visible
07 Jul 5.9 07:14:01 10° NE 07:15:10 15° NE 07:15:10 15° NE visible
07 Jul 5.4 08:52:29 10° NW 08:52:35 10° NW 08:52:35 10° NW visible
08 Jul 5.5 07:35:14 10° N 07:36:24 18° NNE 07:36:24 18° NNE visible
09 Jul 5.7 07:57:24 10° NNW 07:57:44 12° NNW 07:57:44 12° NNW visible
